Theta_e
326 321 319 318 318 316 310 306 295 298 304 292 292 295 293 302 305 303 303 310 307 311 314 314 316 325 325 325 328 330 331 328 330 311 315 330 342 343 343 344 345 345 346 348 348 349 350 352 353 352 353 352 352 352 353 353 352 352 352 353 353 353 353 353 354 355 354 354 354 354 354 354 353 353 353 353 352 352 352 352 352 352 351 353 352 352 351 351 350 350 350 350 349 349 348 346 345
322 319 318 316 313 311 302 307 299 294 294 290 292 296 298 303 303 302 301 308 309 311 311 312 322 332 331 331 332 333 330 334 334 332 336 341 342 342 343 344 344 343 345 346 348 349 349 350 353 353 352 351 351 351 353 353 353 353 353 353 353 353 353 354 354 354 354 354 354 354 354 354 353 353 353 352 352 352 354 352 352 353 352 352 351 350 350 349 349 349 350 349 348 348 347 346 344
324 320 316 314 310 307 305 305 295 292 291 287 291 296 302 300 301 304 308 310 312 312 312 312 312 323 330 332 328 326 322 337 336 337 335 341 336 337 342 344 345 345 345 346 347 348 348 350 352 352 352 351 351 351 352 353 353 353 353 353 354 354 354 355 354 354 354 354 354 354 354 354 353 353 353 352 352 353 352 353 352 351 351 351 350 349 349 350 349 349 349 349 347 347 347 345 345
324 319 314 311 303 306 300 299 297 292 290 289 291 298 300 301 302 305 309 311 311 310 312 310 316 326 331 327 328 334 331 332 338 336 334 337 337 340 341 343 346 345 345 346 347 348 348 351 352 352 351 351 352 352 353 353 354 353 354 354 354 354 354 354 354 354 354 354 353 353 353 353 353 353 352 352 352 354 353 353 350 350 350 349 349 348 348 348 348 347 348 347 346 346 346 345 344
318 316 313 308 305 300 303 297 293 293 290 292 291 297 302 304 304 306 309 310 309 308 310 310 318 331 333 332 334 326 327 336 337 340 338 341 343 340 339 339 341 341 343 345 346 347 348 352 352 352 351 351 352 352 353 353 353 353 354 354 354 354 354 354 354 354 354 354 353 353 353 353 353 352 352 352 351 351 351 351 350 350 349 348 348 348 346 347 348 348 346 346 346 346 346 346 345
312 311 312 309 302 306 301 294 293 292 294 296 295 298 302 304 304 306 308 309 312 308 309 309 311 327 324 327 333 329 336 328 337 340 340 339 341 340 338 340 339 340 343 345 346 346 348 350 352 352 351 351 352 352 353 353 353 353 353 353 354 354 354 354 354 354 353 354 353 352 352 352 352 351 351 351 351 350 350 349 349 348 349 349 347 346 346 348 349 347 345 345 347 347 347 346 345
307 307 309 307 305 307 294 291 290 292 297 300 298 300 302 304 305 306 306 307 309 310 311 319 328 326 321 327 330 333 338 341 339 340 343 342 341 340 340 339 339 340 343 344 345 346 347 351 351 351 351 351 352 352 353 353 353 353 353 354 354 354 354 354 354 353 353 353 353 352 351 351 351 350 349 349 349 349 349 349 348 347 347 346 347 347 348 349 347 344 344 347 347 346 346 346 345
313 305 304 299 296 298 292 292 293 293 296 301 303 302 304 305 306 306 306 305 305 305 309 321 322 324 322 332 321 333 343 344 343 345 344 343 342 341 341 340 339 340 342 343 345 346 350 351 351 351 351 351 351 351 352 353 353 353 354 354 354 353 354 353 353 353 353 352 352 351 351 350 350 350 349 349 349 348 348 348 348 348 347 346 346 346 347 346 345 344 345 346 347 347 347 346 346
308 305 310 299 294 297 292 291 294 298 299 301 302 306 312 307 307 306 305 306 306 307 307 309 327 322 323 325 324 334 341 345 345 346 344 343 342 342 342 340 338 339 341 343 345 347 348 351 351 351 350 351 351 352 352 353 353 354 354 354 354 353 353 353 353 352 352 352 351 351 351 350 350 349 348 347 347 346 346 346 345 346 346 345 345 345 345 345 344 345 347 347 347 347 347 346 345
307 304 296 296 295 290 290 292 292 296 299 302 302 303 305 306 306 307 305 305 305 307 307 311 324 324 327 324 329 336 337 344 344 343 344 344 344 344 343 341 341 341 342 344 345 347 348 351 351 351 350 351 351 352 352 353 354 353 354 354 353 353 353 353 352 352 351 351 351 350 350 349 348 346 345 344 344 345 345 345 345 345 344 344 343 342 343 343 346 347 347 346 346 347 347 347 347
302 304 305 297 291 288 289 290 293 297 299 302 304 306 306 307 306 306 306 305 306 304 305 312 326 325 328 328 330 344 345 344 342 340 343 344 345 345 342 343 343 343 342 343 344 346 347 347 352 352 351 352 352 353 353 354 354 354 354 353 353 353 353 352 352 351 351 351 350 349 348 347 346 345 345 343 342 342 342 343 343 343 343 342 342 342 343 345 345 345 345 346 348 347 347 347 346
299 297 299 291 289 289 291 291 294 297 299 301 301 305 307 306 307 305 305 304 305 304 306 307 317 332 327 328 330 339 343 342 342 343 344 345 344 343 342 342 341 341 342 342 344 344 346 347 348 351 352 353 353 354 354 354 354 354 353 353 353 352 352 352 352 351 351 350 349 348 347 346 346 346 345 344 343 342 340 340 341 341 341 341 340 341 344 345 344 344 345 345 345 346 347 346 347
299 299 294 291 289 291 293 293 293 297 297 298 301 305 307 306 305 305 306 305 304 303 303 310 333 332 323 327 335 340 340 342 344 344 345 344 343 343 342 340 340 341 342 342 341 342 344 345 347 349 351 353 353 353 354 354 354 354 353 352 352 352 352 352 351 350 350 349 348 348 347 347 346 346 345 345 344 343 341 340 341 341 342 342 342 342 343 342 344 343 343 345 346 345 345 347 345
300 300 297 291 294 293 292 292 294 293 294 299 303 306 306 305 305 304 304 302 302 302 308 331 333 333 328 331 332 334 338 343 344 345 345 344 344 342 340 341 341 341 341 340 339 340 342 344 346 348 349 350 350 353 353 353 353 353 353 352 352 352 351 351 350 350 350 349 349 348 347 347 346 346 346 345 344 343 341 340 340 341 342 342 342 342 341 342 342 343 343 344 347 346 347 347 347
300 301 297 294 291 292 295 292 293 293 293 298 302 303 303 306 305 304 303 302 303 308 309 338 336 329 322 328 327 333 339 343 345 345 345 344 344 342 341 341 340 340 340 339 339 338 339 342 345 347 348 349 349 348 349 351 353 353 352 352 352 351 351 351 350 350 350 350 349 348 348 347 347 346 345 345 344 344 342 341 340 340 341 341 341 341 341 342 341 341 342 344 344 346 347 347 347
304 300 297 293 291 291 292 294 296 295 295 300 302 304 304 305 307 304 306 306 306 309 308 305 331 316 332 331 332 338 342 344 345 345 344 343 342 341 341 340 339 339 339 338 338 338 339 340 344 345 346 347 347 347 348 350 352 352 352 352 351 351 351 350 350 350 350 350 349 349 349 347 346 345 346 344 345 344 343 342 341 341 341 341 341 341 342 342 341 342 342 343 344 345 346 347 347
304 301 292 290 290 292 294 294 294 291 298 301 304 303 302 302 305 306 308 309 304 306 307 308 308 339 333 335 339 342 344 345 344 343 342 340 339 338 339 338 339 338 339 338 338 338 338 340 341 341 344 345 345 346 347 348 350 352 351 352 351 351 351 350 350 350 350 349 349 348 347 344 343 342 342 342 345 343 344 343 342 341 341 341 342 342 342 342 342 342 343 343 344 344 346 347 347
303 295 291 290 292 293 296 296 298 299 299 300 303 303 302 301 304 307 307 305 307 307 310 334 336 336 339 340 343 344 344 343 343 340 338 337 338 336 336 336 337 335 336 337 338 338 338 339 339 340 342 342 343 345 347 348 349 350 348 348 349 349 350 351 349 347 351 345 349 347 344 345 342 342 341 346 344 344 342 344 343 343 342 342 342 342 343 342 343 343 343 343 343 344 345 339 342
299 294 292 291 294 296 300 301 301 300 300 302 303 304 304 303 304 306 304 304 308 308 312 333 332 335 339 340 342 342 343 341 341 339 336 335 336 334 334 335 335 335 335 336 337 337 338 338 340 339 340 341 341 343 345 346 346 347 347 347 348 350 351 350 346 349 344 345 345 345 346 345 343 342 344 346 345 345 343 345 345 344 343 342 342 343 342 343 343 343 344 343 343 343 339 338 339
302 295 292 294 298 299 301 303 302 303 303 303 303 305 304 304 304 307 307 309 309 307 323 329 330 331 335 337 340 341 341 340 340 338 336 335 335 335 334 334 334 335 335 337 337 338 339 339 339 339 340 340 340 340 342 343 343 345 346 346 346 346 346 347 346 346 346 345 345 344 344 345 346 343 351 352 349 343 342 345 345 344 344 343 343 343 344 344 344 343 343 344 344 341 332 334 339
302 299 294 296 300 298 301 303 303 304 305 303 303 304 304 305 305 305 303 301 307 312 329 330 330 332 334 337 338 339 339 338 338 337 336 335 336 337 336 336 335 336 337 339 338 338 339 340 339 341 341 341 339 339 339 338 338 340 344 345 345 345 345 345 345 344 345 345 345 344 344 344 345 343 341 344 341 340 339 339 340 339 337 338 343 336 336 339 341 338 336 338 336 335 332 331 334
303 299 301 300 300 298 302 303 304 304 304 303 302 302 302 307 306 305 303 300 298 306 322 334 334 335 335 336 337 338 337 337 336 336 336 335 336 336 337 337 339 338 340 338 338 339 340 341 342 342 342 341 339 337 336 338 337 336 341 343 344 343 345 344 343 342 343 344 343 343 344 336 339 337 338 339 342 341 340 340 340 340 338 339 341 339 338 337 336 337 333 330 329 329 328 329 330
296 299 301 302 302 300 303 304 304 304 303 302 301 302 304 303 304 304 303 303 304 308 332 337 336 337 338 339 338 336 336 336 336 336 336 336 337 338 338 338 338 337 339 339 340 341 343 343 343 343 342 340 337 337 337 338 334 335 339 341 342 340 343 341 339 339 340 342 340 340 334 334 333 336 331 336 338 340 340 341 340 341 340 339 340 338 337 338 337 335 332 330 328 328 328 328 328
300 297 301 302 303 302 304 304 304 302 302 302 304 304 302 301 299 305 304 307 309 309 327 338 338 338 338 336 336 336 336 337 335 330 327 325 327 329 330 331 338 340 339 340 341 342 343 343 344 344 342 339 336 337 338 337 335 335 337 344 342 341 339 337 337 337 339 339 341 338 340 336 335 337 337 335 336 338 342 343 343 343 341 341 341 339 336 337 337 336 335 332 330 329 328 328 328
299 298 301 303 303 303 304 304 303 303 303 304 304 302 301 302 302 303 302 305 306 328 337 339 339 339 338 337 337 337 335 326 325 327 330 331 332 334 334 335 334 335 336 340 341 341 343 343 343 343 342 340 338 338 338 337 337 336 338 339 337 345 336 336 336 338 336 336 339 338 342 338 340 339 337 336 335 335 337 341 343 342 342 341 343 342 343 341 341 341 338 336 333 332 330 331 332
301 300 301 303 303 304 304 304 303 303 304 305 304 302 303 303 305 301 303 306 321 336 337 337 338 337 337 329 325 326 327 328 327 326 327 329 331 330 331 334 335 335 336 335 339 340 340 341 340 342 342 341 338 338 337 337 337 336 336 337 336 341 335 338 337 335 334 335 336 340 342 342 339 339 337 336 335 334 336 339 341 341 341 342 341 341 342 343 340 339 340 340 339 338 338 338 339
303 302 302 302 303 303 303 302 302 303 302 303 302 302 302 304 302 294 307 307 323 335 336 335 332 329 325 325 327 327 328 328 327 326 329 330 330 330 333 334 335 338 338 336 336 336 337 339 342 341 340 340 337 337 337 336 336 335 337 336 335 337 337 337 335 336 335 336 335 342 344 345 342 339 338 338 340 338 339 339 338 339 339 341 343 341 341 341 340 340 340 338 339 339 339 340 339
301 302 302 301 302 303 303 303 302 301 301 303 303 301 302 302 301 297 304 306 316 326 322 322 324 324 323 323 325 326 324 326 328 328 326 328 329 331 332 332 334 335 336 335 336 337 337 338 340 339 338 338 337 336 336 336 335 336 335 334 335 338 337 337 337 340 344 340 343 343 343 344 344 340 340 339 338 336 335 336 338 339 340 341 341 341 340 340 340 341 341 340 340 340 340 339 340
301 301 296 299 301 300 302 301 302 302 300 303 303 301 299 300 297 301 303 314 321 320 322 323 325 324 323 323 323 323 325 328 328 327 327 329 331 332 332 334 335 334 336 337 338 337 339 338 337 337 339 337 335 335 335 335 336 336 333 335 341 342 342 343 342 343 343 344 344 343 342 343 342 341 340 337 341 336 336 337 339 341 341 341 341 343 343 341 340 340 340 341 339 339 339 338 340
301 299 296 296 297 297 301 303 302 301 302 304 303 289 291 298 301 302 309 319 322 319 320 322 323 323 322 323 323 324 325 326 327 327 328 329 331 332 332 335 336 335 334 335 336 337 339 340 340 339 338 335 335 335 335 335 338 339 342 342 344 343 343 343 344 344 344 344 343 343 344 345 343 342 342 340 338 337 336 339 339 340 341 343 343 342 341 341 339 340 339 338 342 336 336 336 335
295 297 297 290 288 289 299 301 301 299 302 303 303 290 290 296 300 303 306 321 319 318 319 321 320 320 321 322 323 323 325 326 327 328 328 329 331 332 333 335 336 335 335 336 338 337 339 337 339 338 337 335 335 337 340 339 338 339 339 341 341 341 341 341 339 339 339 343 342 342 344 344 344 343 343 342 340 338 338 339 339 341 343 340 340 343 341 340 338 338 336 334 335 333 334 335 336
295 291 289 290 288 290 298 301 301 297 300 303 301 291 292 298 311 317 321 321 319 317 319 319 318 319 321 322 322 322 323 325 327 327 328 330 331 332 333 334 335 335 334 335 335 337 337 337 338 339 339 340 339 339 338 339 340 340 341 341 337 339 340 339 340 340 342 340 340 340 339 341 342 342 342 342 340 341 339 339 339 339 343 341 341 340 338 337 337 337 336 335 331 332 332 332 332
292 290 290 288 289 290 295 299 302 301 300 302 300 291 294 296 317 319 321 319 319 317 317 317 318 319 320 320 320 320 321 322 325 326 327 329 330 332 332 333 334 334 334 335 336 336 337 338 339 338 337 337 337 337 336 335 337 337 337 338 338 339 340 340 340 340 339 339 339 340 340 340 338 340 337 341 338 340 340 338 340 343 343 341 340 339 338 338 336 338 334 335 333 330 332 332 332
287 290 286 290 290 290 290 297 300 301 300 296 300 296 297 314 318 319 320 320 318 317 316 316 316 318 319 319 319 319 320 321 323 325 326 328 331 332 333 336 335 334 334 335 336 336 335 335 336 336 337 338 338 337 335 335 336 337 336 337 339 338 339 338 339 340 337 338 339 339 339 339 338 337 339 342 341 342 340 337 337 340 342 341 337 336 337 338 335 334 332 333 335 333 331 331 331
285 286 286 288 291 292 292 292 296 299 299 297 296 296 301 315 316 317 319 319 318 316 316 316 316 317 317 318 318 318 320 320 322 325 327 329 330 332 333 334 334 334 334 335 335 335 335 335 336 337 337 337 338 338 338 337 337 337 336 334 334 335 336 338 337 337 337 339 338 336 337 338 340 338 337 341 340 340 340 339 338 341 341 339 338 335 336 335 333 334 332 332 334 334 332 333 332
291 291 289 290 288 290 291 296 299 299 296 296 294 293 299 315 315 317 318 318 317 316 317 316 316 316 317 317 317 318 320 321 323 326 328 330 330 330 331 332 333 333 333 333 334 335 336 336 335 335 336 338 338 336 335 334 335 336 334 334 334 334 333 336 336 337 337 336 338 335 337 339 341 339 340 338 341 340 339 339 339 339 339 338 337 335 333 333 333 332 332 332 332 332 334 334 333
295 294 292 291 291 292 296 297 299 300 296 295 295 295 297 314 315 316 317 317 316 316 315 315 315 316 316 316 317 318 320 321 324 327 328 329 329 330 331 332 331 331 332 332 333 334 335 335 334 332 333 336 335 334 334 333 332 333 333 331 332 333 331 332 333 334 336 336 338 339 340 340 337 337 340 341 337 340 337 337 337 337 336 335 335 334 334 334 333 333 333 331 331 330 329 332 333
294 292 291 290 292 290 295 296 300 299 296 294 296 295 294 314 315 316 317 316 314 315 315 315 315 316 316 316 317 319 320 323 327 327 328 329 329 330 330 330 331 329 331 331 332 333 334 334 333 331 331 333 334 334 334 334 333 332 331 331 332 333 332 331 332 334 333 335 336 336 336 336 339 337 338 337 336 335 334 334 334 335 334 333 333 333 333 335 332 332 331 330 331 329 329 332 332
294 291 290 290 291 294 297 298 299 299 297 292 296 294 295 313 315 316 316 315 316 317 317 316 316 316 316 317 318 320 321 322 326 327 327 328 329 329 329 329 329 331 331 332 332 333 333 332 331 331 331 331 332 333 333 331 331 332 331 331 331 329 332 333 333 336 336 333 333 335 337 336 334 334 334 335 334 334 334 333 333 332 332 332 330 330 330 329 329 328 328 328 327 329 329 332 331
291 291 288 286 292 291 288 295 297 298 297 293 295 293 310 314 315 315 316 316 318 319 319 318 318 317 317 318 320 321 322 323 325 325 326 328 329 329 329 329 329 330 330 331 332 333 333 332 332 332 331 330 331 333 333 334 335 335 335 335 334 333 332 335 334 334 334 335 334 334 333 332 332 331 331 331 331 330 330 329 329 329 328 329 328 327 326 326 326 326 326 327 327 324 325 326 330
292 292 290 290 291 292 292 291 296 297 298 299 303 305 304 308 309 310 313 318 319 319 319 319 319 320 321 323 324 324 323 324 325 326 326 327 328 329 329 330 330 329 330 330 331 332 333 332 332 331 331 330 331 334 333 334 334 332 332 332 332 331 331 331 330 330 332 333 330 330 330 330 330 329 328 328 330 328 327 326 326 326 326 326 326 325 324 324 324 324 325 324 324 322 322 322 325
290 293 293 293 294 293 294 295 294 290 290 301 304 293 296 305 307 308 312 315 316 318 317 317 318 320 322 322 323 325 326 328 327 326 326 327 329 329 329 329 329 329 329 331 332 332 333 332 331 330 331 331 332 332 333 333 332 329 328 326 325 325 324 325 326 329 330 328 327 328 328 329 328 326 326 326 327 327 325 324 324 324 323 323 324 322 322 322 322 322 323 323 323 323 322 320 319
287 290 295 295 294 294 294 294 293 284 286 293 302 292 288 302 301 305 310 312 314 316 316 317 319 320 321 322 323 324 325 326 327 327 327 327 328 329 328 328 328 328 330 332 332 332 332 332 330 330 331 331 332 333 333 332 330 329 329 328 327 325 324 326 331 332 329 328 328 327 326 326 325 324 324 324 323 324 323 323 322 322 321 321 323 320 319 319 321 321 323 322 322 322 321 317 317
287 294 295 295 294 293 293 294 293 288 295 295 296 294 295 293 298 303 309 310 312 314 315 317 319 320 320 322 323 325 326 326 326 326 327 328 328 328 328 328 328 328 330 332 331 331 332 331 330 332 331 331 331 331 331 331 330 330 328 327 327 326 327 328 331 330 329 328 326 325 325 324 324 323 323 323 322 322 322 321 320 320 319 320 321 318 318 319 320 319 322 321 320 319 318 316 315
290 295 296 294 295 294 294 292 290 291 290 285 289 300 293 294 300 307 310 308 309 312 314 316 319 320 320 322 323 325 325 326 326 326 326 327 327 328 328 328 329 330 331 331 331 331 331 332 332 331 329 329 330 332 331 331 331 330 328 327 326 327 330 330 330 329 327 327 325 325 324 324 323 322 322 322 321 321 322 320 319 318 318 319 320 318 317 317 316 317 318 316 315 315 316 317 315
294 297 297 296 296 296 295 291 290 291 289 284 288 292 284 291 299 302 307 308 307 310 314 317 319 320 320 321 323 324 325 325 326 327 326 327 327 327 328 329 330 330 330 331 332 332 332 332 331 329 328 329 329 330 330 329 329 329 328 328 327 328 330 329 328 326 325 324 322 322 321 322 322 320 320 321 321 321 319 320 318 317 317 318 319 315 316 315 315 317 316 315 314 313 314 314 314
297 297 294 294 293 292 293 292 290 289 282 284 291 292 289 284 297 301 302 305 309 311 313 316 319 319 320 321 323 324 324 324 325 326 327 328 328 328 329 329 330 330 330 331 331 331 331 331 329 328 328 329 329 329 329 329 329 330 329 330 329 329 328 327 325 323 323 323 322 322 320 319 319 319 319 319 318 318 318 319 317 317 317 318 316 315 314 314 314 315 315 314 313 312 312 313 313
296 292 290 289 288 291 288 288 289 281 277 286 292 293 292 281 295 303 307 311 312 313 311 314 316 317 318 320 322 324 325 325 325 326 326 327 327 328 329 329 329 329 330 330 330 330 330 329 328 328 329 330 330 330 330 329 328 327 327 326 326 326 326 324 322 321 322 322 321 320 320 318 317 317 318 317 315 316 317 315 316 314 315 314 313 314 314 314 315 315 313 313 311 311 312 313 311
294 291 289 285 280 282 279 283 279 279 277 286 293 294 288 285 299 305 308 308 312 314 314 316 316 316 317 319 322 324 325 325 325 325 326 326 326 327 328 328 328 328 328 329 329 328 328 329 328 328 328 327 326 326 325 325 325 324 325 324 324 324 323 322 321 321 321 320 319 318 318 316 315 314 314 314 314 314 315 313 313 312 313 314 314 314 314 314 313 313 312 311 310 310 310 311 310
292 289 285 282 278 278 275 279 280 281 289 291 292 294 286 291 300 308 307 309 312 314 315 317 317 317 317 320 322 323 324 324 325 325 325 325 326 327 328 328 328 328 328 328 328 329 329 329 327 325 324 324 323 323 323 323 324 324 323 322 321 321 320 320 320 320 319 319 319 317 316 315 314 313 313 312 313 314 313 314 313 313 313 313 314 314 313 314 313 312 310 309 309 310 311 311 310
291 293 289 284 283 282 275 278 276 277 280 288 297 288 282 284 291 309 310 311 313 315 315 317 318 319 320 322 323 324 323 324 325 325 325 326 327 327 327 327 327 328 327 327 328 328 326 324 324 322 322 322 321 321 321 321 322 322 321 321 320 319 318 318 319 319 318 317 318 317 316 314 313 313 312 312 314 312 313 313 313 311 312 311 312 312 312 311 311 311 310 309 310 310 310 310 309
293 294 293 287 283 286 278 281 284 284 282 283 285 283 292 288 301 309 311 312 312 314 314 315 316 318 320 321 321 322 323 324 324 324 325 326 327 327 327 327 327 327 327 327 326 324 323 322 322 321 320 319 319 319 318 318 318 319 319 319 319 319 319 318 318 318 317 317 316 316 315 314 313 313 313 311 312 312 312 312 312 312 311 311 312 311 310 310 309 309 307 307 307 312 309 308 308
290 290 286 288 293 292 283 284 291 283 283 280 283 288 295 298 302 306 310 310 311 313 312 314 315 318 319 320 321 322 323 324 324 324 325 325 326 327 327 326 326 326 326 326 324 323 322 321 319 318 318 318 317 317 317 317 317 318 318 318 317 316 316 316 316 316 316 316 315 314 313 313 313 312 314 313 311 311 312 311 310 310 309 310 310 310 309 309 308 307 307 306 306 308 309 308 308
291 286 287 295 297 295 286 279 282 281 278 280 287 282 289 290 285 303 305 306 308 310 310 315 317 318 318 319 321 322 323 323 324 325 325 326 326 326 326 326 325 325 325 324 323 323 321 319 318 317 316 316 316 316 316 316 316 316 316 316 316 316 316 315 315 315 315 315 314 314 313 313 312 313 313 314 311 310 309 311 307 307 308 308 308 309 309 308 308 307 307 306 307 307 307 307 308
292 290 296 289 282 282 287 283 277 276 277 279 282 286 288 289 293 297 299 303 305 308 312 314 315 316 317 319 321 322 323 323 323 323 324 324 325 325 325 325 325 325 324 323 323 321 319 318 318 317 316 316 316 316 315 316 316 316 316 315 315 315 315 315 315 316 315 314 312 311 311 310 310 312 312 309 308 307 306 306 305 305 305 306 306 307 308 307 307 306 307 305 306 305 305 304 305
296 296 293 295 290 288 282 282 285 283 278 278 279 285 279 293 296 297 299 304 307 309 312 313 315 316 317 319 320 321 321 322 323 323 323 324 325 325 324 324 323 323 322 322 321 319 318 317 316 316 316 315 315 315 315 314 315 315 315 315 314 314 314 314 314 313 313 312 312 311 311 310 310 311 308 307 305 305 304 303 303 303 303 304 304 305 306 306 306 306 305 305 304 304 303 303 302
289 288 287 291 292 293 289 292 286 282 278 279 278 279 283 289 300 300 302 305 308 311 311 314 315 316 318 320 320 321 321 322 322 322 323 324 324 324 324 324 323 322 322 321 319 317 317 316 315 315 314 313 313 314 313 313 314 313 314 312 312 313 312 313 312 312 311 311 311 311 310 310 309 307 307 306 305 304 303 303 302 303 302 302 303 303 304 305 305 304 305 304 304 303 302 302 302
289 286 285 288 288 284 281 279 290 290 284 279 280 278 284 296 304 304 303 307 310 313 313 313 315 316 318 319 320 321 321 322 322 323 323 323 323 323 322 322 321 321 320 318 317 317 315 315 315 314 314 313 313 313 313 313 313 312 311 311 311 312 312 312 311 311 311 310 310 309 309 308 306 306 305 304 303 303 302 302 301 301 301 301 302 302 303 303 304 303 303 305 303 302 301 301 301
Wind_Speed
9 9 8 9 7 6 5 2 2 2 0 5 4 3 6 5 7 8 11 2 4 3 2 7 9 10 9 11 17 13 7 7 1 5 5 3 8 14 18 19 16 16 16 11 10 10 10 14 19 19 19 19 19 18 16 17 17 16 15 14 14 13 13 14 13 13 13 14 13 14 13 14 14 14 13 12 12 12 12 13 12 13 13 13 14 14 14 14 13 12 12 12 11 11 10 9 7
7 8 9 8 6 3 2 2 0 3 2 4 8 5 8 9 9 12 7 2 2 2 4 4 14 20 22 18 17 18 12 6 7 8 7 11 14 12 16 18 17 19 14 11 9 9 9 12 18 17 19 20 19 18 17 16 16 16 15 14 13 13 14 14 13 14 14 13 14 14 14 14 14 13 13 12 11 9 9 12 13 13 13 13 13 13 13 12 12 11 11 10 10 10 9 8 6
5 7 8 7 3 4 2 1 2 1 3 6 6 6 9 11 13 12 9 6 3 4 4 4 7 13 11 10 10 10 2 6 14 13 9 13 15 8 15 15 15 18 17 11 10 9 8 11 16 17 19 19 18 18 17 15 15 15 15 15 14 14 14 14 14 14 14 13 14 14 14 14 14 13 12 11 10 10 11 10 13 12 12 12 12 11 11 10 11 11 11 10 8 8 8 6 4
4 3 2 3 3 2 1 0 2 4 5 6 7 6 7 11 14 11 8 4 1 2 3 7 8 5 12 14 11 16 10 7 10 17 10 8 9 14 14 16 15 15 13 11 10 9 8 13 17 18 20 19 19 18 16 15 15 15 15 15 14 14 14 14 14 14 14 14 14 14 14 15 14 13 12 12 9 8 8 9 11 11 10 10 10 10 10 10 10 10 9 9 8 8 6 5 3
3 5 2 0 1 1 0 2 4 3 7 3 7 6 10 14 16 12 4 0 3 4 4 2 5 7 11 14 4 5 5 9 10 9 9 11 16 15 15 16 14 14 13 13 11 9 10 19 17 17 18 20 19 17 16 15 14 15 15 15 14 14 14 14 14 14 14 14 15 14 15 14 14 14 13 11 11 10 10 11 11 11 11 11 11 9 8 8 9 9 8 8 8 8 7 4 3
7 6 3 2 2 1 1 2 3 7 6 2 7 7 11 15 14 8 8 3 1 4 2 4 6 5 6 4 2 4 13 9 10 8 15 13 19 19 17 14 14 13 13 12 11 9 10 19 17 17 18 19 18 17 16 15 15 15 15 15 15 15 15 14 15 15 15 15 15 15 15 15 14 13 13 11 10 10 10 9 8 9 9 9 8 8 8 8 8 8 8 8 8 7 6 5 4
3 3 1 1 3 1 4 4 7 7 9 5 6 10 11 17 17 17 15 10 3 1 1 9 15 15 9 2 8 2 2 6 8 12 15 19 19 18 17 14 14 15 14 12 11 10 12 15 16 17 19 18 18 16 16 15 14 14 15 14 14 15 15 15 15 15 15 15 15 15 14 13 13 13 12 11 10 9 8 8 8 7 7 7 7 7 7 7 7 8 7 7 7 7 5 5 3
3 0 2 1 3 2 3 6 8 5 7 10 11 14 17 19 22 15 16 12 1 5 1 7 11 10 5 2 5 3 1 3 12 18 22 19 18 17 15 14 16 15 14 12 11 10 16 15 15 16 18 17 17 16 15 15 14 14 14 14 14 15 15 15 15 15 15 15 15 14 14 13 13 12 11 11 10 9 9 9 8 7 8 7 6 6 7 6 6 7 7 7 6 5 5 4 4
3 2 1 1 3 2 3 6 8 6 8 8 10 13 17 16 19 20 19 14 13 7 5 3 16 12 5 12 5 1 7 15 17 20 19 20 17 15 11 15 17 14 14 12 11 10 10 14 15 16 17 17 17 16 15 15 14 14 14 14 15 13 15 15 16 15 14 14 13 13 13 12 12 11 11 9 9 8 8 7 7 7 6 6 5 5 5 6 6 6 7 6 6 5 4 4 3
2 3 2 2 2 7 6 6 5 6 9 10 10 11 14 15 16 17 20 18 14 9 2 10 8 13 11 14 6 4 5 14 18 16 16 17 17 13 13 15 17 18 14 13 12 11 9 16 15 14 14 15 16 15 15 13 13 14 14 14 14 14 15 16 15 15 14 14 13 13 12 12 11 11 10 9 8 7 7 7 6 6 6 5 5 4 4 4 5 5 6 6 5 5 4 3 3
2 3 1 2 5 6 8 7 9 8 10 9 11 14 15 14 16 15 13 15 3 5 5 12 13 13 12 5 2 1 4 11 17 17 16 15 14 12 16 15 16 17 16 15 13 11 10 10 17 14 13 14 14 13 12 13 14 12 13 14 14 16 16 15 15 15 14 14 13 13 12 12 11 11 10 9 8 7 6 6 5 6 5 4 4 4 3 4 4 4 5 5 4 3 3 2 4
3 3 4 5 7 8 7 8 10 9 11 10 11 10 9 13 16 13 11 18 2 8 1 4 8 12 9 8 5 5 4 7 12 15 15 13 12 18 17 12 15 16 17 15 14 11 10 9 10 15 15 14 14 14 13 15 14 13 14 16 15 16 15 14 14 13 13 13 12 12 12 11 11 11 10 9 8 7 6 5 5 5 5 5 4 4 4 3 3 3 4 4 4 2 1 2 3
4 4 5 5 4 6 8 9 6 7 7 9 11 11 13 21 18 14 18 16 6 9 3 3 17 13 5 5 5 6 8 8 11 13 13 13 15 14 14 14 15 15 15 15 15 13 11 9 8 9 11 16 14 14 14 14 15 14 14 15 15 16 16 15 14 14 13 13 12 12 12 11 11 11 10 9 7 6 5 5 5 5 5 6 5 4 3 2 2 3 3 4 3 3 2 1 3
6 5 4 6 4 6 7 7 7 9 9 7 10 13 12 9 7 1 2 10 5 5 6 19 12 16 11 9 6 7 8 10 12 12 11 16 14 15 16 14 15 14 14 14 15 14 12 9 8 8 10 9 8 12 15 15 15 16 14 14 15 16 15 15 13 13 12 12 12 12 11 10 10 10 9 8 8 6 6 5 5 4 5 5 4 3 2 1 1 2 3 3 3 3 3 3 4
7 3 3 3 4 5 8 9 7 9 9 6 8 10 7 4 2 3 4 3 3 1 4 14 14 12 9 13 5 11 12 12 13 12 13 15 15 16 15 15 14 14 13 13 15 14 13 11 9 8 8 8 8 6 6 12 18 17 16 16 16 14 14 14 13 12 12 11 12 11 11 10 9 9 8 8 7 7 6 5 5 4 4 4 3 3 1 1 1 2 2 3 2 2 2 4 6
7 4 3 5 8 8 4 10 10 10 8 8 12 6 2 1 2 3 1 1 0 2 2 2 3 3 15 18 19 15 15 14 12 11 13 18 16 15 14 14 13 13 12 13 12 12 12 11 9 8 8 8 7 6 7 8 14 17 16 17 16 15 15 13 12 11 12 11 11 11 10 8 8 6 9 6 7 8 7 4 5 5 4 4 4 2 2 1 1 1 2 2 2 1 2 3 5
5 4 5 5 10 8 6 6 5 8 10 14 14 5 4 3 3 3 6 2 2 0 2 1 1 8 21 10 18 20 17 15 12 12 14 15 14 11 11 10 10 10 9 11 11 12 12 12 11 8 8 9 8 7 6 7 10 15 14 17 17 16 13 13 11 11 10 10 9 9 9 6 5 4 5 3 7 3 6 7 5 5 4 4 4 3 2 2 2 3 3 2 3 3 2 4 6
4 7 7 10 7 10 6 8 7 4 9 5 10 5 7 3 3 0 4 3 2 2 5 9 14 8 14 11 20 21 20 17 14 15 14 14 12 12 11 11 11 11 11 10 10 12 12 11 11 10 9 9 9 7 5 6 7 10 7 8 9 10 10 10 7 4 7 3 9 7 4 4 4 4 5 6 3 4 5 7 6 5 5 5 3 3 2 3 4 4 5 5 5 4 4 2 3
7 5 7 13 8 7 5 8 12 8 10 11 2 6 1 4 2 1 1 4 2 0 5 15 14 14 15 18 17 19 19 17 16 13 17 17 14 14 12 11 11 12 11 10 10 12 12 11 10 11 9 9 9 7 6 6 7 6 7 7 6 8 8 6 4 4 3 3 3 4 4 3 4 5 4 5 4 6 5 8 6 5 5 5 5 4 4 4 5 6 7 6 6 6 2 3 3
9 5 10 12 6 7 10 12 13 12 10 15 3 3 5 5 5 4 2 1 4 5 9 9 13 13 16 16 17 17 17 17 15 13 16 16 14 13 13 13 12 12 12 11 12 10 13 10 11 10 10 10 8 7 7 6 6 7 6 6 5 5 4 5 4 4 4 4 4 5 4 3 4 5 8 11 8 4 4 7 7 6 6 6 6 4 6 7 8 8 7 8 5 3 3 3 4
5 9 9 7 8 9 12 13 13 12 14 12 2 2 2 3 3 5 3 5 1 0 14 17 17 17 18 17 17 16 16 15 13 12 13 14 12 10 11 10 11 10 9 11 10 11 12 11 10 10 11 9 8 7 7 7 6 6 6 6 5 5 5 4 5 4 5 5 6 5 5 4 5 6 3 4 6 5 4 3 3 3 2 2 5 3 3 4 4 4 4 5 5 4 4 5 5
4 12 11 5 6 13 14 14 16 16 16 14 5 8 3 1 3 2 4 3 2 2 8 18 21 21 21 19 18 17 17 16 13 13 12 12 14 13 10 8 9 8 10 11 11 12 11 11 10 11 10 9 9 7 7 7 6 7 7 6 6 5 6 5 5 5 5 6 5 3 4 5 5 3 3 4 5 4 3 3 4 3 3 3 3 4 3 3 3 4 4 5 5 5 5 5 5
11 7 10 13 13 9 6 14 18 19 13 12 5 3 4 3 1 3 6 3 2 3 13 16 20 22 23 23 20 17 17 15 14 13 10 6 6 5 8 8 9 8 10 10 11 10 10 11 12 12 9 9 9 8 7 5 5 6 6 6 6 5 6 5 6 6 6 3 4 3 4 0 1 2 1 2 3 2 3 3 3 4 4 4 4 3 2 4 4 4 4 5 5 3 5 5 6
12 9 7 13 13 16 15 17 12 8 9 4 2 3 3 4 4 0 2 0 0 6 9 17 14 13 14 16 18 21 18 14 12 14 15 13 15 17 14 14 7 1 8 10 10 9 11 13 13 11 9 9 8 9 7 7 6 6 7 7 7 6 6 5 6 4 3 3 2 3 2 1 0 3 2 4 2 3 1 1 2 5 5 5 5 4 5 5 5 4 5 5 5 4 5 5 5
14 13 11 9 11 12 15 20 14 13 11 6 3 5 2 4 2 5 4 1 3 7 14 15 14 14 10 8 7 8 12 14 11 10 8 6 9 11 9 7 10 12 1 9 9 10 11 12 12 10 11 11 9 8 8 7 6 6 6 6 7 6 6 6 5 3 3 2 3 3 1 1 4 3 3 2 1 1 0 2 1 1 3 5 4 5 3 1 2 3 3 4 5 5 5 5 5
14 12 10 9 9 11 14 18 16 14 11 6 2 1 2 4 8 7 3 3 9 15 16 15 15 14 13 14 16 11 8 10 11 11 10 7 8 13 4 3 5 7 6 2 4 6 6 7 8 11 11 8 9 8 6 7 6 7 7 7 6 5 6 5 6 5 3 3 3 1 2 4 4 4 3 1 3 3 3 2 3 2 3 1 1 1 2 1 2 3 3 4 4 4 5 5 6
8 14 12 12 12 13 8 13 12 13 7 5 3 1 3 5 3 3 1 1 9 15 13 14 16 16 15 13 12 9 7 4 8 9 11 10 11 8 5 7 7 5 6 7 6 7 5 3 4 7 5 6 7 7 7 7 7 7 6 5 5 5 6 6 6 5 4 3 3 3 4 3 4 4 4 1 0 1 3 3 4 3 3 2 0 0 1 1 2 3 3 4 3 4 5 4 4
11 11 18 16 11 12 12 14 12 5 7 7 9 6 4 4 4 5 0 3 8 18 17 18 18 14 9 12 11 10 10 9 12 14 15 13 10 8 8 8 8 8 6 7 7 7 4 5 3 4 5 8 9 6 7 7 7 6 6 6 5 5 5 6 5 5 4 3 3 4 3 3 3 2 3 2 1 1 1 4 4 3 3 2 0 1 2 2 2 4 4 4 3 3 4 4 4
12 14 10 16 16 13 14 15 12 7 4 10 6 2 3 2 5 3 6 14 21 15 13 15 16 14 12 10 11 12 12 11 9 10 10 10 11 9 6 8 8 6 5 8 8 3 5 3 5 2 7 8 8 7 6 5 6 6 6 5 6 6 6 6 6 5 5 3 3 3 2 2 1 1 2 2 1 1 2 2 2 3 3 2 1 1 2 2 2 3 3 3 4 4 4 5 5
10 10 8 7 13 16 15 11 12 8 2 3 7 3 4 7 8 6 1 20 16 15 10 8 11 12 10 10 8 9 8 9 10 9 7 10 13 13 12 11 12 8 7 4 5 1 3 6 4 3 7 7 7 6 6 5 6 7 6 6 6 7 6 6 5 6 4 3 2 2 1 0 1 1 1 2 2 3 2 2 2 3 3 0 0 1 3 3 3 4 3 3 4 3 4 5 5
11 9 6 7 6 6 10 13 12 14 3 7 5 5 3 5 7 8 4 18 20 14 13 11 10 12 13 11 10 10 7 7 9 10 10 10 11 12 14 13 12 12 9 8 5 6 8 5 4 5 6 5 5 5 7 7 6 7 7 7 6 5 5 6 6 5 3 4 2 1 0 0 1 1 2 1 2 3 3 3 4 5 2 2 3 1 2 3 3 4 3 3 3 4 4 5 4
7 8 12 4 7 2 4 7 11 12 4 6 6 6 6 2 3 5 15 16 18 14 13 12 11 11 12 11 11 11 10 8 9 11 11 11 12 12 14 13 12 11 11 11 10 6 3 6 5 7 6 7 7 8 6 7 8 8 7 6 6 5 5 6 6 1 1 3 5 6 10 9 7 7 5 3 4 5 4 4 4 2 5 3 3 2 2 3 4 3 3 2 3 4 4 4 5
6 8 3 8 7 4 4 10 9 14 7 8 12 4 4 1 1 2 9 17 14 12 7 8 13 14 10 10 9 9 9 8 8 10 11 10 10 11 11 13 10 10 7 7 7 6 7 7 8 8 7 8 8 8 7 7 10 10 8 5 5 4 5 5 4 4 5 4 5 6 5 6 4 5 8 7 6 5 3 1 4 4 3 3 4 3 4 4 3 4 3 3 2 3 4 5 5
7 4 4 4 8 6 8 2 10 14 13 6 12 8 2 6 3 4 6 14 12 14 11 10 11 11 10 9 10 9 8 8 10 10 11 8 8 9 10 12 13 11 9 9 10 10 9 8 8 8 7 7 7 7 7 7 8 8 5 4 5 5 5 4 5 5 5 3 4 5 6 5 5 5 2 5 5 4 1 1 3 4 4 3 3 3 4 4 3 2 3 3 4 3 4 4 5
6 4 6 5 4 8 8 8 3 12 16 13 10 11 7 8 7 7 4 6 15 13 11 11 13 13 12 10 9 9 9 9 9 10 12 12 12 10 10 12 11 9 8 9 8 9 8 8 7 7 7 8 8 7 7 8 8 7 5 5 4 5 4 4 4 6 4 3 5 6 6 5 3 1 2 3 2 2 2 2 3 3 2 3 3 4 4 3 3 3 3 3 4 4 4 5 5
7 8 4 5 5 7 9 10 10 12 13 15 9 11 10 12 10 8 6 7 12 11 9 8 9 11 12 12 11 10 10 9 6 9 12 10 11 11 10 10 9 8 8 8 10 9 10 8 7 6 7 7 7 6 7 8 7 6 6 4 4 4 4 4 4 5 4 4 4 5 4 3 3 4 1 4 1 2 1 3 2 2 4 3 3 4 5 5 5 3 3 3 4 4 5 4 3
8 11 9 10 10 8 8 10 13 12 12 15 13 10 11 12 14 12 10 7 9 10 9 8 8 9 9 10 11 11 11 11 7 6 7 9 11 9 10 11 10 9 8 8 9 8 10 10 10 8 5 7 8 7 5 6 7 6 5 6 6 3 3 4 5 4 4 3 2 3 2 4 4 4 5 2 4 5 5 5 5 6 6 6 6 6 5 5 6 5 4 3 4 4 4 4 4
11 8 10 9 12 10 9 9 14 11 10 12 14 11 7 14 12 13 13 13 12 11 8 9 9 9 9 12 11 11 10 8 10 9 8 8 9 9 9 10 11 13 8 7 9 9 8 8 9 7 5 6 6 7 7 6 4 5 6 6 6 5 4 5 5 4 4 4 3 3 2 0 2 5 5 6 6 7 6 6 7 7 7 6 6 6 7 7 8 8 7 7 5 5 5 6 7
14 8 6 9 12 11 12 14 13 9 11 9 15 13 7 14 11 10 14 13 10 11 14 13 13 11 9 9 11 11 10 10 10 12 11 11 11 11 10 10 9 10 10 7 6 8 8 8 8 6 6 5 6 7 7 7 3 5 5 5 6 4 4 3 4 4 5 5 2 3 3 2 7 7 7 8 8 8 8 7 7 7 7 7 7 7 7 8 7 8 8 7 7 5 4 4 8
10 10 7 6 4 12 8 16 14 8 11 10 16 7 9 10 7 5 4 7 9 7 7 9 10 15 14 14 14 14 12 12 12 12 11 12 13 12 11 11 11 10 8 7 7 8 7 7 7 7 6 5 6 5 6 5 5 5 6 6 5 4 5 3 4 4 3 2 3 5 6 8 9 9 9 9 8 8 8 8 6 6 6 6 6 6 6 7 7 7 7 7 6 6 6 5 7
12 11 7 7 10 7 11 7 8 7 7 13 13 10 4 7 11 6 4 7 10 9 9 8 4 5 8 8 8 10 11 10 13 11 7 9 11 12 12 11 11 11 8 8 7 6 5 7 6 8 6 6 6 6 8 7 7 6 7 7 6 8 6 4 3 3 3 6 7 8 9 10 10 10 9 9 8 7 7 7 6 6 6 6 5 7 6 6 6 5 7 6 6 5 6 4 6
10 11 10 10 11 11 11 8 9 5 6 8 20 5 1 4 6 11 9 8 8 9 12 10 10 10 10 11 12 11 11 8 10 10 10 7 7 9 11 12 12 10 10 7 7 6 6 6 6 5 5 5 5 6 8 7 7 8 7 7 7 6 6 5 5 6 7 7 8 7 9 9 10 9 9 9 8 7 6 6 6 6 6 7 6 6 6 7 8 8 7 5 6 6 4 5 6
8 9 10 15 16 15 8 14 10 5 9 7 14 10 2 4 10 6 7 10 10 8 11 10 12 12 10 10 12 13 13 11 10 10 10 9 8 8 9 10 11 11 9 9 7 7 8 7 5 4 5 6 4 5 6 7 7 6 7 7 7 7 7 3 3 7 8 7 7 8 7 8 9 9 8 8 7 7 6 6 6 6 6 6 6 6 6 6 5 5 6 7 6 7 8 7 7
10 7 8 12 15 16 13 13 13 2 6 7 11 8 9 5 8 13 6 7 10 9 10 11 11 12 11 11 13 13 12 13 12 12 11 9 7 7 9 10 9 10 10 9 8 7 9 7 5 4 5 6 5 6 6 6 8 6 7 7 7 7 7 7 8 7 7 7 8 8 7 7 8 8 8 8 7 6 6 6 5 6 6 6 6 6 6 5 6 6 7 8 8 8 8 7 6
7 9 11 11 12 14 14 7 3 4 7 8 6 13 6 5 10 10 9 8 7 11 12 12 12 13 14 13 13 14 14 15 14 12 12 11 9 7 8 9 8 9 9 10 9 8 7 6 5 5 5 5 5 5 5 4 4 6 7 7 8 6 7 7 8 8 8 7 8 6 8 8 8 7 7 6 6 6 5 5 5 6 7 6 7 6 6 6 7 7 8 9 8 7 7 6 6
10 9 10 12 10 12 9 4 5 4 10 8 10 9 5 4 6 7 7 8 10 11 14 13 14 16 16 15 14 15 14 14 14 14 13 12 10 10 8 8 9 8 7 8 8 8 7 6 7 6 4 3 3 4 5 5 5 6 7 7 10 8 7 8 7 8 7 7 8 8 8 7 6 6 6 7 6 5 5 5 5 6 6 6 5 5 5 6 6 6 7 7 7 7 6 6 6
5 13 9 13 10 4 3 5 4 2 4 7 11 11 8 3 8 13 11 10 16 11 10 10 13 13 13 13 16 15 16 15 14 14 13 12 12 11 10 11 10 9 8 9 8 8 7 7 7 6 4 3 3 4 4 6 5 5 6 7 8 10 9 9 9 8 7 7 8 7 7 6 6 6 6 6 5 5 5 5 6 5 5 4 5 4 5 6 5 6 7 7 6 5 5 5 6
12 9 9 7 4 2 3 3 1 1 3 5 6 9 13 6 8 10 13 19 19 20 19 19 17 16 14 14 13 14 14 14 14 14 14 15 12 11 10 10 11 10 10 10 9 8 7 7 7 8 5 5 3 3 3 6 7 8 8 9 9 9 8 8 9 9 8 9 7 8 7 7 6 6 5 5 5 5 5 5 4 4 4 4 5 4 5 6 6 6 6 6 6 5 4 3 4
12 9 6 8 2 4 5 3 5 2 2 5 9 11 4 7 12 18 19 8 12 14 17 21 20 17 16 14 14 12 12 14 14 13 14 13 13 13 12 12 11 11 11 11 10 9 8 8 8 9 6 4 5 6 6 7 8 8 9 9 8 8 9 9 9 8 7 8 7 9 7 6 6 6 5 5 3 4 4 4 4 5 5 5 5 5 5 6 7 7 6 5 6 6 6 4 5
14 12 6 7 5 7 6 2 2 1 3 5 11 11 6 2 3 23 22 17 19 19 15 20 20 19 18 16 14 13 13 13 13 13 13 13 13 12 12 12 11 11 11 11 11 10 9 9 9 10 9 6 6 6 7 8 8 8 9 8 8 9 9 9 8 8 8 8 8 8 7 6 6 5 5 4 3 3 3 4 4 5 5 5 5 6 6 7 7 6 5 5 5 5 5 5 5
11 8 6 5 2 3 5 2 4 4 4 4 0 3 3 4 5 18 23 20 16 17 15 19 18 17 16 14 14 15 14 12 13 13 13 13 13 14 12 11 11 11 12 12 10 9 10 10 10 11 10 7 7 6 7 7 7 8 8 8 8 8 9 9 8 7 8 8 8 8 7 6 6 5 6 3 4 4 3 4 4 4 4 5 5 7 7 7 6 6 5 5 5 4 5 6 7
9 8 3 4 6 5 3 2 1 1 1 2 1 2 1 2 10 19 13 13 13 13 14 17 17 16 16 14 15 14 14 14 13 14 14 14 14 13 11 11 11 11 13 11 10 11 11 11 10 10 9 7 7 7 6 7 7 8 8 9 8 9 8 8 8 8 8 8 8 8 7 6 5 5 4 4 2 3 3 4 4 6 6 6 6 6 6 6 5 5 4 5 5 4 5 6 6
9 5 9 6 3 5 3 2 2 2 3 4 1 2 2 2 11 9 17 16 15 16 17 19 17 17 17 16 14 14 14 15 14 14 14 15 14 12 12 12 11 12 11 10 11 11 12 11 11 10 8 7 6 6 6 6 7 8 7 8 8 8 8 9 9 10 10 8 7 7 6 6 5 4 3 3 3 4 4 5 6 6 6 6 5 4 4 4 4 3 4 4 5 5 4 6 6
5 8 4 2 4 2 6 4 0 2 4 4 2 3 1 5 2 10 12 16 18 17 17 20 18 17 16 14 14 15 15 15 15 14 14 14 14 14 13 12 12 12 11 12 12 10 9 9 11 11 10 9 6 6 6 6 8 8 9 9 9 9 9 9 8 9 8 8 5 5 5 5 4 3 3 3 4 6 6 7 6 6 6 7 6 5 4 4 3 4 4 6 6 6 8 8 8
8 8 5 7 6 7 2 5 3 5 3 0 4 6 2 7 7 4 5 15 13 16 17 20 18 17 14 13 15 15 15 15 14 14 14 13 13 14 14 13 13 12 11 11 11 10 10 9 9 9 10 8 7 6 6 6 6 6 6 8 9 8 8 8 7 7 6 6 7 6 6 5 3 3 4 6 6 6 7 7 6 7 7 7 7 6 6 5 4 6 7 8 8 8 9 9 8
6 7 8 6 3 1 2 2 3 7 3 2 3 4 3 4 12 16 15 16 19 19 18 20 21 18 14 15 14 15 15 14 14 14 14 14 14 15 15 15 15 14 13 11 11 10 11 9 10 9 8 8 8 7 5 6 6 6 7 7 6 8 8 8 7 7 7 7 6 6 5 4 4 5 6 7 7 7 7 8 8 8 7 7 7 6 6 6 6 6 6 7 8 9 9 9 8
9 4 3 6 1 3 4 0 3 5 4 7 2 2 2 3 10 14 18 22 21 22 21 19 18 15 16 17 16 15 15 14 14 14 15 15 15 15 15 13 13 13 11 10 11 12 10 9 9 9 10 9 8 6 5 7 7 7 6 6 8 8 9 8 9 8 8 7 6 5 4 4 5 6 6 7 7 8 8 9 9 8 7 6 7 7 7 6 6 6 7 7 8 8 8 7 7
6 5 3 6 8 2 4 5 1 2 3 3 5 5 4 3 7 11 17 21 21 22 24 20 18 18 18 16 16 17 15 14 15 14 15 15 14 15 14 14 13 13 12 12 11 11 10 9 9 9 9 7 6 5 7 7 5 6 6 7 8 8 8 8 9 9 8 6 5 5 4 6 7 7 8 9 9 8 8 9 8 8 7 7 7 8 8 6 6 7 7 6 7 6 7 7 7
Wind_Direction
326 318 315 312 314 290 343 348 2 304 263 261 260 273 258 276 272 294 279 346 67 24 22 35 46 58 92 109 108 88 50 104 205 139 206 132 113 109 115 120 121 121 127 134 134 133 133 133 132 132 131 132 130 128 126 126 124 124 122 119 116 114 113 111 111 108 109 109 107 106 105 104 104 102 102 101 101 100 102 107 103 101 100 99 100 100 99 96 94 89 85 82 80 75 69 64 57
317 325 318 312 298 358 324 57 316 304 345 302 269 265 271 289 289 274 262 135 246 131 55 75 78 95 104 111 113 87 55 64 109 108 76 107 108 111 121 124 132 127 129 132 132 132 134 137 133 135 135 134 134 133 130 129 128 127 126 122 121 119 115 114 113 114 114 112 112 109 107 106 104 102 99 99 98 101 96 98 101 98 97 98 98 99 100 98 91 85 85 85 79 74 69 63 49
326 333 327 332 329 140 289 40 288 262 278 272 272 261 284 285 278 287 343 86 88 29 51 40 96 108 95 95 50 88 100 102 104 98 112 129 112 130 128 123 125 125 128 131 133 133 136 138 136 136 136 136 134 135 134 132 131 130 127 125 124 121 118 117 116 118 116 115 114 112 110 107 105 102 99 100 101 97 101 106 101 102 103 102 101 100 96 95 93 89 82 77 73 70 65 58 39
308 270 252 360 328 342 187 322 172 226 241 239 276 285 281 278 282 284 281 142 109 46 49 44 36 340 110 81 106 91 119 133 138 128 134 151 129 136 131 128 128 124 125 132 134 134 137 141 136 138 138 137 137 136 136 135 133 131 127 126 124 122 121 119 119 119 119 117 114 112 110 108 107 104 102 100 95 98 102 101 103 105 107 108 105 100 101 93 90 81 78 74 68 63 63 57 52
306 279 183 316 334 319 149 197 209 208 246 232 242 252 252 262 265 275 226 285 57 89 82 118 93 43 80 115 112 127 167 122 133 127 108 112 126 130 132 132 129 127 127 128 131 134 140 142 140 139 139 139 138 138 136 136 136 132 128 126 125 123 122 120 121 121 121 118 114 112 109 107 105 105 104 98 88 86 88 85 83 85 81 78 77 78 82 84 82 82 74 66 62 63 59 49 23
284 280 236 156 188 211 344 308 286 275 237 249 291 272 288 280 283 300 303 338 213 116 136 159 122 144 60 11 42 104 140 142 157 107 122 132 130 135 135 133 129 125 126 123 127 133 143 143 141 140 140 139 140 138 137 137 136 133 130 128 127 126 123 123 123 123 120 117 115 112 109 107 104 104 106 98 92 90 95 100 96 93 83 88 93 99 93 84 81 76 69 65 62 62 65 46 26
298 360 302 127 312 360 194 219 238 239 251 252 258 278 278 291 290 297 294 292 332 279 99 103 104 96 87 115 52 15 315 121 123 133 125 133 133 137 138 136 125 120 122 124 126 135 143 142 141 141 140 139 139 139 138 137 136 134 131 129 127 127 126 125 124 122 120 119 117 113 110 107 105 105 105 105 105 107 104 102 103 97 105 104 99 91 87 78 72 69 65 59 64 69 67 64 41
238 136 276 114 249 158 232 227 232 209 253 234 249 268 275 279 289 286 286 297 305 333 51 135 113 97 139 62 114 292 93 93 107 116 122 130 134 138 139 128 118 119 121 124 128 134 143 141 141 141 139 138 139 139 137 136 135 134 132 131 130 130 130 128 124 120 122 120 116 114 112 109 107 107 105 107 109 111 110 109 101 91 90 94 87 80 72 66 65 65 57 61 66 73 69 53 49
268 163 290 356 272 264 238 216 236 218 252 247 245 244 256 258 271 283 284 282 294 259 254 121 116 112 127 89 84 300 91 114 117 123 125 129 134 140 132 124 122 121 122 125 127 131 135 143 141 141 141 139 139 138 137 137 136 135 134 134 131 129 129 127 124 123 121 118 116 115 112 111 110 108 110 110 110 107 109 112 121 112 105 103 102 86 75 75 65 58 54 53 62 69 67 55 26
265 160 242 194 169 248 255 258 262 238 242 250 254 251 247 248 251 256 269 277 264 277 186 39 98 105 116 102 111 59 105 116 123 121 125 131 136 135 120 121 121 122 122 125 126 128 137 143 142 141 141 140 139 139 139 139 138 136 136 133 133 132 129 126 124 124 122 120 118 116 116 114 113 113 111 113 116 120 119 123 124 127 119 112 106 98 89 73 66 52 49 54 58 57 41 28 7
249 187 215 218 229 248 229 252 245 260 254 256 253 253 257 257 248 248 248 257 124 99 314 105 79 111 107 95 53 162 109 114 123 131 132 132 134 118 116 121 123 122 125 128 127 131 138 139 143 142 142 141 138 134 136 137 136 135 132 133 134 132 128 126 126 125 124 122 121 119 119 121 119 119 118 117 115 119 124 125 129 130 131 130 115 117 103 83 62 49 46 45 56 63 52 4 358
246 205 169 216 218 206 228 232 247 250 253 252 260 254 252 256 259 255 246 252 215 116 185 187 151 119 91 125 133 145 131 112 126 130 133 126 101 114 121 122 120 124 128 129 128 129 132 139 140 145 143 135 129 131 136 139 135 133 135 136 135 131 128 129 128 126 126 125 125 125 126 126 126 125 124 121 120 117 118 121 129 132 138 138 143 129 116 89 50 43 37 33 38 47 46 16 321
200 195 204 214 216 217 240 250 247 261 257 236 245 249 243 255 258 256 247 244 164 132 208 106 136 113 133 139 145 138 142 149 137 136 132 114 120 118 119 120 121 124 125 129 129 132 135 134 141 141 139 133 127 126 134 135 135 133 134 137 134 132 132 131 131 130 129 131 132 133 133 134 135 134 130 129 127 120 112 122 128 129 132 138 139 128 112 89 43 21 34 28 19 5 344 314 314
199 208 170 238 204 228 224 243 242 249 253 255 251 262 259 254 260 27 64 123 152 131 138 120 122 100 103 108 156 155 160 160 140 138 126 121 120 119 119 120 122 124 128 133 132 134 136 139 136 138 139 130 131 128 136 139 139 136 135 137 134 134 135 135 134 134 135 137 137 136 135 136 135 131 131 131 125 117 116 117 125 139 139 135 134 135 129 101 28 7 13 24 8 1 328 291 298
219 212 245 230 245 215 217 236 224 239 252 242 249 245 247 268 232 60 100 122 115 130 120 115 147 107 190 146 187 183 169 159 142 142 129 125 118 118 121 124 124 129 133 135 136 137 139 141 137 137 134 131 126 129 137 145 142 140 138 139 136 135 137 138 137 139 141 139 137 135 137 136 131 131 131 127 129 133 126 122 131 146 155 157 153 158 157 166 16 352 345 3 4 339 312 300 302
204 209 224 236 240 236 226 219 228 239 254 234 242 207 148 252 128 105 227 208 164 1 35 95 210 180 168 166 172 162 155 147 146 145 123 116 116 119 125 127 131 134 137 140 140 138 141 141 140 143 139 136 132 130 132 139 142 141 142 140 138 138 140 141 145 146 144 141 140 142 141 136 135 138 140 141 145 144 142 146 149 154 163 171 164 171 185 174 287 301 308 340 328 287 264 282 286
185 203 234 232 244 233 227 246 219 223 239 245 253 231 221 170 212 157 153 67 83 277 173 173 221 100 156 175 147 145 146 143 150 146 124 125 127 131 133 134 134 135 139 146 142 141 139 140 148 146 145 143 138 131 129 134 143 141 144 143 143 143 145 149 152 149 142 145 143 146 144 142 148 154 149 161 156 160 158 156 158 160 175 165 175 187 195 221 262 270 295 292 296 275 255 251 271
189 202 213 238 227 231 223 239 241 251 263 252 258 207 211 193 225 204 99 97 90 9 45 57 56 73 139 124 139 143 145 148 158 154 139 134 138 139 140 146 146 147 149 148 147 141 136 147 155 149 149 148 139 131 131 132 133 132 129 140 143 148 151 156 148 137 144 148 156 158 152 159 158 161 173 170 161 161 153 161 164 172 173 178 187 203 225 244 266 281 279 275 270 283 282 278 269
208 201 196 232 220 236 238 244 256 265 267 282 269 15 25 7 340 203 95 140 113 94 56 79 73 81 102 123 136 143 149 155 160 162 146 147 148 147 147 149 151 149 155 151 147 144 144 154 155 153 153 146 138 132 132 132 128 126 130 139 146 149 160 147 137 148 136 174 173 174 178 175 167 182 184 169 164 165 169 166 173 174 179 190 194 205 227 242 253 258 263 273 277 280 296 272 258
224 196 215 229 217 240 248 248 257 260 281 272 84 20 343 9 333 328 55 117 129 137 97 85 106 121 127 135 145 149 152 159 164 162 151 151 147 146 150 154 153 158 159 152 147 149 152 157 154 153 147 142 136 135 136 138 133 132 135 138 141 145 148 147 166 164 172 191 188 191 193 191 184 184 193 170 171 159 175 174 180 185 193 203 210 215 226 227 233 242 251 258 275 275 251 243 247
201 225 223 216 208 239 246 259 260 268 258 267 76 108 325 298 317 334 2 2 344 115 147 143 142 143 146 146 151 156 156 160 165 161 153 153 141 145 151 152 155 157 153 140 145 153 158 151 149 143 139 140 137 138 144 149 142 135 140 140 147 151 157 169 184 180 188 196 203 197 196 190 186 192 170 152 132 160 175 172 183 194 221 220 216 219 233 244 239 246 256 257 251 248 243 236 238
240 226 232 230 208 217 230 249 262 256 263 276 249 150 218 121 309 292 296 229 242 221 167 150 149 153 150 154 160 160 161 160 161 159 156 149 147 149 146 142 149 154 137 146 152 154 156 146 142 138 143 142 141 143 145 152 141 141 144 150 154 162 168 181 194 195 189 193 213 184 197 156 144 180 151 150 166 162 158 187 194 189 212 240 230 223 229 232 251 255 244 246 246 235 246 257 254
236 238 223 223 239 254 226 226 236 248 262 269 311 294 122 99 333 299 252 204 252 279 137 150 154 160 163 156 157 160 160 158 157 149 143 115 108 118 140 146 157 150 144 147 150 150 143 136 136 140 140 138 141 146 148 144 148 149 149 150 158 170 176 180 192 188 190 162 180 135 93 122 124 137 220 158 95 102 178 207 208 195 202 228 234 212 245 240 232 237 260 252 253 253 258 260 265
222 236 216 222 220 239 257 258 262 280 291 309 245 80 16 97 256 283 267 359 317 282 134 152 146 136 139 153 162 160 156 132 86 49 43 33 23 6 355 350 331 107 139 141 141 140 136 137 138 140 138 144 148 156 154 153 160 153 158 163 160 176 169 179 174 175 153 119 116 117 125 87 263 57 89 57 57 62 67 188 228 213 191 221 224 185 230 237 223 224 237 243 243 243 246 252 260
224 225 226 225 214 228 239 259 260 266 278 258 38 4 314 340 276 317 288 341 309 93 120 122 134 134 129 123 113 92 80 65 85 111 107 102 93 66 26 7 326 317 170 138 139 137 141 137 138 141 149 153 155 156 149 159 158 153 155 162 160 173 172 175 149 143 156 149 105 126 112 49 47 85 73 61 91 68 266 331 288 245 190 200 193 203 212 166 183 189 194 208 222 236 234 241 236
220 225 231 228 232 223 223 247 252 260 260 256 262 230 340 296 311 287 277 306 82 113 113 125 123 129 108 71 56 42 91 130 127 143 133 86 91 108 146 117 334 288 306 359 91 84 78 106 137 155 154 154 143 138 147 153 150 142 153 158 153 144 157 123 134 138 155 114 101 101 117 91 86 89 77 27 51 353 341 322 310 350 342 350 300 285 294 302 326 335 330 336 325 319 330 319 333
192 224 234 227 225 246 244 239 245 241 238 169 185 225 263 256 238 279 56 326 95 101 97 73 58 42 54 65 81 64 19 42 62 48 60 56 53 62 59 40 4 348 348 39 28 58 12 357 152 145 147 124 108 121 133 133 127 126 135 131 114 87 103 110 115 128 140 127 136 65 80 94 107 99 114 106 40 358 315 317 322 333 338 312 161 297 329 360 331 319 296 288 295 309 299 295 316
251 211 218 234 234 231 246 254 262 254 244 176 171 191 190 244 224 228 359 317 83 89 74 82 95 101 67 70 69 79 63 21 58 65 67 60 59 46 27 25 12 26 12 50 40 67 75 316 164 183 129 109 116 115 115 115 114 112 127 120 94 94 98 92 90 76 74 79 85 96 82 83 93 122 110 151 184 254 309 302 311 323 279 285 39 21 334 332 314 300 306 296 282 285 292 301 301
239 244 239 219 225 238 229 243 248 250 260 202 152 156 235 230 243 231 185 85 90 91 102 102 105 112 125 127 131 126 133 132 105 90 102 107 99 94 80 69 48 59 39 59 54 53 77 230 266 145 93 110 113 118 118 121 102 105 114 91 77 72 66 68 62 59 62 69 79 84 77 98 101 126 148 174 187 231 256 287 305 294 298 288 290 292 305 312 337 321 314 318 325 325 325 317 314
256 254 243 234 219 226 223 228 244 249 229 95 96 225 236 232 246 271 131 114 108 96 97 114 119 118 115 111 106 104 99 112 120 126 114 102 105 108 99 82 86 82 72 75 111 131 180 233 197 89 99 108 119 122 122 101 88 85 77 74 76 74 69 72 63 47 43 40 56 45 100 123 143 220 208 222 205 244 284 331 303 288 301 330 13 328 355 349 344 336 302 341 321 331 319 304 310
229 250 248 226 209 234 209 212 220 242 186 174 114 221 262 233 226 235 143 120 116 128 144 137 113 112 119 121 117 105 91 88 113 111 102 98 100 105 105 114 120 126 137 147 165 187 204 156 96 86 92 96 92 78 80 90 90 85 79 69 67 75 73 74 66 32 17 339 22 346 119 34 117 280 315 32 41 62 38 353 360 338 321 35 13 360 13 316 314 289 285 308 306 314 303 298 296
220 217 228 246 200 185 235 193 202 222 205 179 152 234 229 156 352 82 120 128 135 141 150 141 121 118 125 126 122 120 124 122 124 121 119 120 121 124 123 129 134 138 153 153 144 165 91 68 72 81 74 79 78 81 76 83 78 72 67 70 62 44 64 70 76 104 17 4 23 18 6 2 9 2 349 13 48 28 29 22 334 5 291 26 5 3 354 318 297 288 289 266 318 311 322 313 311
225 204 184 216 211 212 217 213 199 214 218 184 180 216 187 138 175 111 135 137 139 130 113 116 124 124 122 122 113 113 114 116 116 126 129 127 125 128 132 130 132 141 131 97 105 93 91 94 87 87 85 90 90 84 80 70 76 72 71 74 73 65 76 76 77 57 47 48 41 38 55 61 44 353 6 6 14 358 346 18 336 294 359 19 26 3 344 318 322 311 326 328 319 292 314 308 311
226 191 200 212 207 174 226 262 210 199 204 201 191 208 137 126 116 99 136 126 125 128 139 130 127 128 124 119 122 123 125 129 132 129 131 128 121 125 128 129 137 147 136 134 135 125 126 118 108 108 112 105 100 99 95 85 80 86 78 65 66 65 70 78 79 68 57 41 65 52 52 42 37 25 12 339 7 304 32 44 345 335 350 9 14 353 316 322 330 23 3 345 348 333 315 306 300
187 189 204 235 237 195 204 207 217 202 191 209 191 199 136 140 124 129 148 131 128 139 143 143 134 130 128 127 128 134 138 138 147 140 137 135 128 136 136 138 138 135 134 130 123 124 118 117 115 117 113 106 99 101 98 92 91 101 107 91 76 78 75 77 77 72 65 47 61 67 56 50 331 13 344 340 16 320 1 343 333 307 311 359 343 329 319 325 344 18 40 339 336 318 293 287 285
202 200 187 213 208 223 216 203 229 199 192 201 187 192 160 148 143 140 142 141 121 131 135 132 130 128 132 137 140 140 147 147 145 146 141 137 138 143 135 120 115 121 127 141 133 131 127 122 118 107 107 110 109 107 103 99 98 115 122 123 87 76 70 75 78 85 94 76 84 92 101 117 67 14 351 316 280 295 325 314 312 329 338 349 356 351 348 348 353 10 355 351 340 330 320 301 314
223 202 207 206 227 245 225 216 219 203 186 191 201 201 166 158 151 156 149 134 119 129 138 139 136 130 134 138 144 146 150 150 145 142 136 136 131 140 134 120 115 114 132 146 138 136 137 139 134 124 127 135 131 127 116 120 123 125 112 110 114 125 102 94 89 83 80 98 108 138 133 104 113 197 234 191 43 30 25 6 11 14 17 20 17 11 358 6 10 9 351 358 350 343 323 326 327
240 213 199 201 207 235 239 224 220 195 177 193 199 204 169 160 155 150 144 137 145 151 146 145 142 138 142 145 144 147 148 126 138 133 129 126 131 131 122 117 118 128 144 150 145 142 136 133 124 126 140 146 130 124 126 120 142 144 130 135 133 132 127 98 90 87 87 71 73 62 53 70 126 89 63 50 46 34 27 27 28 24 24 18 16 15 17 14 13 19 16 11 2 1 345 349 337
240 233 209 202 201 210 236 249 236 196 180 176 188 203 177 160 151 149 155 150 157 164 158 161 149 145 143 146 146 143 142 145 148 141 140 139 141 136 131 126 124 127 141 144 137 135 136 128 121 136 158 131 117 127 126 131 133 129 129 148 135 114 80 87 105 91 102 103 134 140 156 137 81 72 59 52 42 32 31 30 28 25 24 18 17 20 22 23 21 24 20 20 356 2 347 343 354
234 231 239 236 210 189 210 240 245 190 185 164 181 165 96 130 114 121 145 127 135 143 144 146 154 151 157 164 158 148 140 149 149 141 147 150 151 144 138 133 129 129 132 136 143 139 140 135 135 153 157 131 121 130 121 118 119 114 108 109 93 93 112 98 75 75 97 156 116 120 91 72 67 61 53 49 47 41 36 33 27 27 23 24 30 31 27 26 20 22 18 18 19 12 0 343 8
235 227 226 229 252 219 198 226 241 177 174 132 99 89 95 125 144 141 134 121 120 122 121 129 136 114 120 117 112 126 130 137 138 132 131 147 147 145 140 131 126 130 137 144 144 138 143 139 147 161 148 129 126 132 122 124 118 103 102 102 105 100 84 91 107 99 109 92 78 58 56 57 56 56 50 48 47 44 37 34 31 22 21 18 30 34 30 21 23 21 19 17 21 17 2 349 0
244 235 223 238 243 246 218 213 210 129 216 136 132 80 165 185 145 142 144 120 126 140 137 150 143 139 136 131 132 127 128 135 127 134 142 149 148 136 129 128 128 133 140 146 141 131 132 136 150 157 117 122 134 136 136 141 141 137 135 125 117 111 107 104 113 116 100 87 79 73 61 57 59 55 49 44 43 41 34 29 30 27 26 25 32 35 29 24 21 21 13 11 14 15 11 12 5
225 231 211 231 246 257 256 216 219 152 180 208 146 135 212 349 320 308 148 148 143 148 145 146 141 144 141 140 141 139 143 128 125 130 138 147 142 136 133 130 131 139 142 140 142 130 129 147 156 135 123 127 138 136 137 137 136 144 141 131 122 123 119 102 89 97 100 93 89 80 75 67 63 60 50 51 42 35 31 25 31 31 32 34 33 32 26 23 15 15 10 17 17 18 23 28 16
225 233 219 227 238 250 254 248 217 185 168 198 170 138 142 162 216 238 220 148 144 142 145 153 147 147 149 149 148 145 141 139 139 139 141 147 139 140 140 134 140 145 143 140 137 130 135 151 151 122 111 136 140 137 141 148 139 136 126 119 117 117 114 113 105 101 98 98 88 86 79 69 64 64 56 47 42 34 33 30 33 32 30 28 32 24 17 16 17 4 20 34 34 32 29 28 15
215 232 233 235 236 244 251 276 293 191 131 200 218 115 92 168 191 202 157 145 161 163 159 164 157 151 154 157 154 146 148 145 140 139 143 146 140 135 137 142 142 140 143 139 133 128 135 141 119 102 124 145 143 139 137 137 126 135 131 129 121 115 114 110 106 103 103 102 99 92 83 77 67 60 61 56 47 38 32 29 32 35 28 26 31 25 20 24 22 26 35 42 38 33 30 26 32
209 230 234 248 242 241 251 264 274 215 171 215 211 177 124 171 169 178 170 162 181 175 168 167 163 158 160 161 152 148 144 143 143 143 143 146 145 147 148 135 138 143 126 116 118 126 131 128 122 132 142 145 136 119 117 117 120 122 120 130 125 126 121 114 112 112 107 102 95 90 87 85 84 74 61 49 38 30 28 26 36 41 40 33 32 27 26 20 19 36 47 50 43 40 26 32 36
171 230 241 243 236 254 263 252 250 31 260 227 189 174 157 131 198 180 170 191 186 165 153 159 158 160 161 154 153 154 151 153 151 148 147 143 143 143 140 141 138 127 121 121 125 133 127 125 132 131 132 117 117 127 132 126 123 121 125 127 124 125 124 121 114 107 108 100 99 95 94 98 89 83 73 53 44 37 33 39 42 41 41 34 29 29 29 22 22 42 50 47 39 37 26 33 30
198 211 220 247 291 323 304 286 83 158 268 260 213 176 177 138 205 209 204 192 177 163 163 162 161 159 152 155 158 153 151 147 144 144 139 137 138 132 133 137 137 133 131 130 134 133 127 129 132 127 128 128 128 132 128 113 108 105 101 101 104 107 112 110 105 104 105 105 105 104 93 79 69 69 67 60 43 41 47 42 40 38 33 29 27 32 29 30 36 48 50 41 26 14 10 35 36
210 206 188 181 209 164 249 213 230 191 184 240 207 186 176 210 175 189 206 188 164 176 164 164 157 152 152 159 155 149 144 143 145 142 140 143 142 141 146 143 140 142 139 138 135 132 130 130 132 127 116 108 109 112 109 106 101 98 98 98 97 97 96 99 99 100 91 86 81 81 88 90 82 67 50 49 32 57 65 52 39 33 30 27 35 36 27 33 42 49 49 35 20 15 4 11 30
202 207 176 167 169 187 217 220 146 316 251 281 184 169 220 143 183 181 186 186 173 174 163 155 154 153 154 157 149 144 148 147 144 143 143 141 140 146 148 145 145 141 137 136 136 136 135 130 124 115 110 106 105 100 98 94 93 96 94 93 91 91 90 87 87 89 88 86 89 90 90 91 88 82 65 50 48 50 64 61 50 44 42 37 40 38 36 38 46 53 44 29 13 5 11 23 18
200 215 168 162 155 167 200 120 173 198 216 244 249 134 237 222 223 184 187 176 169 166 152 150 148 143 146 150 143 145 147 144 142 145 144 140 144 147 144 141 139 138 137 138 141 131 124 123 120 118 116 113 108 103 98 95 96 95 93 91 93 92 91 89 87 90 91 90 87 93 88 82 82 84 79 67 47 47 59 63 62 58 47 42 44 48 44 45 45 47 33 21 10 12 19 18 14
210 207 204 251 242 146 133 198 113 175 171 344 333 169 252 214 193 170 172 161 151 145 137 140 141 141 144 147 152 154 147 142 143 142 139 144 147 142 136 137 137 138 138 140 131 128 125 123 120 117 116 115 107 106 100 102 98 98 100 101 97 95 94 93 91 86 83 82 82 87 92 94 93 92 98 92 72 68 69 62 51 53 46 40 47 57 55 53 48 49 31 19 22 7 23 23 24
198 184 208 208 229 110 114 75 120 101 60 276 208 341 351 38 13 140 153 157 152 147 140 143 145 148 149 154 155 150 145 145 146 146 142 145 142 136 137 137 138 140 141 137 131 131 129 126 122 118 113 105 103 100 103 102 102 97 96 98 99 96 94 94 95 90 89 88 92 95 98 101 100 100 103 117 93 58 62 67 58 57 50 40 45 57 62 63 59 47 32 19 11 360 20 27 36
149 211 233 244 254 118 124 169 37 112 138 253 266 197 237 78 216 334 161 149 150 152 142 143 147 148 154 157 154 149 147 145 145 141 141 141 138 138 139 139 140 140 136 130 130 127 121 122 123 121 119 117 115 108 101 101 100 98 100 100 98 99 100 96 92 91 91 99 104 96 91 88 100 113 113 90 82 70 59 57 59 55 49 41 36 29 38 47 49 32 20 18 20 32 39 33 36
175 197 154 206 177 227 265 103 162 163 189 268 273 235 217 151 169 154 223 147 134 145 136 144 151 157 155 148 148 145 142 142 144 143 143 141 141 141 140 139 139 134 128 127 122 116 116 114 114 116 119 119 117 111 104 95 91 98 101 106 108 107 106 108 109 108 108 104 96 96 96 101 90 82 76 70 68 70 65 55 54 52 47 41 34 31 30 33 35 40 34 38 37 45 48 45 38
238 160 204 197 112 175 96 186 163 131 196 164 285 229 232 208 166 171 174 147 144 145 142 154 161 163 152 149 147 147 149 149 146 146 145 143 141 141 141 141 140 136 132 130 120 116 115 115 114 111 107 108 109 111 107 103 99 100 105 99 94 102 105 110 110 107 103 101 99 100 104 101 102 83 81 78 72 68 65 60 53 51 46 38 31 24 24 27 33 41 44 47 47 53 51 47 45
209 180 211 185 197 175 129 310 171 159 170 173 178 257 281 263 178 161 153 151 152 150 154 159 163 154 149 151 152 153 152 151 149 148 146 145 143 140 140 136 132 128 127 123 120 122 120 118 116 113 116 119 125 125 113 113 112 112 107 102 106 104 103 99 93 94 100 103 109 113 118 116 86 79 78 74 73 69 64 62 58 51 45 36 30 21 13 20 41 45 46 53 54 57 59 55 51
195 167 201 184 175 101 163 281 265 177 112 192 163 233 265 271 173 170 146 154 155 154 156 160 158 149 153 154 155 155 153 151 146 146 145 144 141 140 135 132 131 131 130 125 126 123 124 123 122 121 123 131 130 123 118 114 110 109 106 101 95 96 100 98 98 102 104 107 108 105 100 90 89 82 78 72 68 65 66 64 60 51 42 34 27 24 15 12 36 49 50 54 56 51 55 54 51